Regional Weather Roundup
Issued by NWS Newport/Morehead, NC

Current Version | Previous Version | Graphics & Text | Print | Product List | Glossary On
Versions: 1 2 3 4 5 6 7 8 9 10 11 12 13 14 15 16 17 18 19 20 21 22 23 24 25 26 27 28 29 30 31 32 33 34 35 36 37 38 39 40 41 42 43 44 45 46 47 48 49 50
000 ASUS42 KMHX 220010 RWRMHX WEATHER ROUNDUP FOR EASTERN NORTH CAROLINA NATIONAL WEATHER SERVICE NEWPORT/MOREHEAD CITY NC 800 PM EDT SUN SEP 21 2014 NOTE: "FAIR" INDICATES FEW OR NO CLOUDS BELOW 12,000 FEET WITH NO SIGNIFICANT WEATHER AND/OR OBSTRUCTIONS TO VISIBILITY NCZ015>017-031-032-045>047-102-103-220100- NORTH COAST CITY SKY/WX TMP DP RH WIND PRES REMARKS EDENTON CLEAR 75 67 76 SW8 29.79R ELIZABETH CITY CLEAR 71 67 87 SW8 29.78R KITTY HAWK CLEAR 74 66 78 SW7 29.78R MANTEO CLEAR 74 67 79 SW8 29.80R $$ NCZ045>047-081-094-103-104-220100- CENTRAL COAST CITY SKY/WX TMP DP RH WIND PRES REMARKS FRISCO CLEAR 72 67 84 W8 29.82R SWANQUARTER N/A 75 N/A N/A SW10 29.79R $$ NCZ095-097-098-100-101-220100- SOUTHERN COAST CITY SKY/WX TMP DP RH WIND PRES REMARKS BEAUFORT CLEAR 78 69 73 SW10 29.85R CEDAR ISLAND N/A 75 N/A N/A SW6 29.88R JACKSONVILLE CLEAR 74 65 73 S7 29.85R NEWPORT NOT AVBL PINEY ISLAND CLEAR 74 67 78 S7 29.84R WILMINGTON CLEAR 77 64 64 SW7 29.87R $$ NCZ011>013-027>030-043-044-078>080-089-090>093-098-220100- COASTAL PLAIN CITY SKY/WX TMP DP RH WIND PRES REMARKS AHOSKIE CLEAR 72 66 81 CALM 29.78S CLINTON CLEAR 75 68 77 CALM 29.85R ELIZABETHTOWN CLEAR 77 66 68 CALM 29.86R GOLDSBORO CLEAR 77 70 77 CALM 29.81R GREENVILLE CLEAR 73 68 83 SW6 29.84R HAVELOCK CLEAR 75 65 70 SW8 29.86R KENANSVILLE CLEAR 72 66 82 CALM 29.85S KINSTON CLEAR 73 66 78 SW7 29.83R NEW BERN CLEAR 74 66 76 S6 29.85R RICHLANDS CLEAR 72 64 78 SW6 29.85R ROANOKE RAPIDS NOT AVBL ROCKY MOUNT CLEAR 75 66 73 S6 29.80R WASHINGTON CLEAR 75 65 73 S3 29.81S WHITEVILLE CLEAR 76 66 71 CALM 29.87R $$ AMZ130-135-150-152-154-156-158-170-250-252-270-ANZ085-086-088-633-658-670-220100- MARINE OBSERVATIONS STATION/POSITION TIME TEMP WIND PRES WAVE SWELL AIR SEA DIR/SP/G HT/PER HT/PER (UTC) (F) (DEG/KT/KT) (MB) (FT/S) (FT/S) CHESAPEAKE LIGHT 2300 75 240/ 10/ 10 1007.4 BUOY 44014 0000 74 77 260/ 10/ 12 1007.1 5/ 8 5/ 8 DUCK 0000 76 75 230/ 10/ 13 1007.6 2E DUCK 0000 N/A 4/ 8 OREGON INLET 0000 76 76 220/ 11/ 13 1008.9 BUOY 44095 0000 74 N/A 6/ 8 2/11 20E OREGON INLET NOT AVBL HATTERAS CG NOT AVBL DIAMOND BUOY 0000 78 240/ 17/ 21 1009.7 7/ 9 7/ 9 CAPE LOOKOUT 2300 77 230/ 8/ 11 1010.2 BEAUFORT LAB 0000 78 75 230/ 5/ 9 1010.0 30 SE NEW RIVER 0000 81 83 240/ 17/ 21 1011.5 4/ 8 3/ 8 5 SE WRIGHTSVILL 2300 77 79 240/ 10/ 12 N/A BUOY 41002 NOT AVBL BUOY 41004 0000 81 82 220/ 14/ 16 1013.1 3/ 9 3/ 9 $$

USA.gov is the U.S. government's official web portal to all federal, state and local government web resources and services.